Simultaneous Nadir Overpasses (SNOs) Predictions

Prediction of SNOs between FY3D and AQUA Satellite Orbit:

Table of predicted SNOs for the next 14.0 days since TLE Epoch: 12/10/2022
Index Date (FY3D) Time (FY3D) Lat,Lon (FY3D) SZA (FY3D ) Date (AQUA) Time (AQUA) Lat,Lon (AQUA) SZA (AQUA ) Distance(km) Time Diff (sec)
1 12/12/2022 07:34:30 77.93, 49.27 101.35 12/12/2022 07:35:28 77.92, 49.37 101.32 2.71 58
2 12/12/2022 08:24:59 -77.27,-140.25 79.45 12/12/2022 08:24:39 -77.27,-140.24 79.44 0.31 20
3 12/14/2022 22:11:03 77.91,-169.77 101.52 12/14/2022 22:12:02 77.91,-169.70 101.49 1.83 59
4 12/14/2022 23:01:32 -77.25, 0.72 79.29 12/14/2022 23:01:13 -77.25, 0.70 79.28 0.77 19
5 12/17/2022 12:47:33 77.78, -28.21 101.49 12/17/2022 12:48:33 77.79, -28.31 101.48 2.55 60
6 12/17/2022 13:38:07 -77.32, 141.30 79.08 12/17/2022 13:37:48 -77.32, 141.33 79.08 0.87 19
7 12/20/2022 03:24:11 77.98, 111.67 101.81 12/20/2022 03:25:10 77.97, 111.75 101.78 2.09 59
8 12/20/2022 04:14:39 -77.27, -77.57 79.06 12/20/2022 04:14:20 -77.27, -77.61 79.06 1.00 19
9 12/22/2022 18:00:38 77.78,-106.39 101.58 12/22/2022 18:01:37 77.79,-106.52 101.58 3.02 59



Historial Predications of SNOs between FY3D and AQUA
